TIMESTAMP,CO2_1_1_1,H2O_1_1_1,TAU_1_1_1,TAU_SSITC_TEST_1_1_1,H_1_1_1,H_SSITC_TEST_1_1_1,LE_1_1_1,LE_SSITC_TEST_1_1_1,FC_1_1_1,FC_SSITC_TEST_1_1_1,WD_0_0_1,WS_0_0_1,WS_MAX_0_0_1,U_SIGMA_0_0_1,V_SIGMA_0_0_1,W_SIGMA_0_0_1,USTAR_0_0_1,MO_LENGTH_0_0_1,ZL_0_0_1,FETCH_MAX_0_0_1,FETCH_70_0_0_1,FETCH_80_0_0_1,FETCH_90_0_0_1,PA_0_0_1,RH_0_0_1,TA_0_0_1,VPD_0_0_1,T_SONIC_0_0_1,T_SONIC_SIGMA_0_0_1
[yyyymmddHHMMSS],[mmolCO2 mol-1],[mmolH2O mol-1],[kg m-1 s-2],[#],[W m-2],[#],[W m-2],[#],[umolCO2 m-2 s-1],[#],[Decimal degrees],[m s-1],[m s-1],[m s-1],[m s-1],[m s-1],[m s-1],[m],[#],[m],[m],[m],[m],[kPa],[%],[deg C],[hPa],[deg C],[deg C]
20220322003000,420.94519659818951,5.1840843118034616,1.0918632707557689,0,-10.109000497886548,0,11.304288370901002,1,1.1317157372784545,0,84.722304455434781,4.2915054753420128,11.505020717753974,1.7985398454554087,1.5233416360940475,1.1690070818064640,0.95408252704179475,7170.5456322070240,2.6497286224161417E-003,106.43144045044160,194.59061771033075,232.87527026203333,291.53220438321893,94.151180844835068,81.465517241379303,-0.23034482758623653,1.1107618575578260,-0.62451359388563787,6.9008347839782880E-002
20220322010000,420.22976578594762,5.0031191649058711,1.2789092134696467,0,-19.882771846834480,1,45.214088240696974,1,3.0765293492955483,1,81.396120049682054,4.4660483322078601,12.257167370866089,2.0391329627229298,1.7871955493858962,1.2879625858034669,1.0329106466026128,4623.5113539740887,4.1094308081819153E-003,104.95001501571247,191.88209953923669,229.63386577642709,287.47435060628874,94.081629928168411,78.596000000000004,-0.23599999999999000,1.2822026126245794,-0.65192500220405236,9.0860996391155691E-002
20220322013000,419.51363987344899,4.7689594651912204,1.2007400389029759,0,-15.412321491424255,0,27.738291417684145,0,1.3550127033541104,0,106.20807042614413,4.0255087112333090,11.078181521804364,1.9237162546868385,1.5900955671304589,1.1176649244182921,1.0005987508321925,5426.3409532609294,3.5014386607207302E-003,114.60763944456184,209.53931713650528,250.76504552405757,313.92808013331404,94.187894168619792,73.933333333333337,-3.8666666666642868E-002,1.5840920293464387,-0.46882168028088245,7.0428268729637089E-002
20220322020000,419.01461133832601,4.6217807642282773,1.4037664609535934,0,-10.298003940210991,0,32.702286877365758,0,1.5002522717543678,0,84.535407605611567,4.5268736312883782,13.483504309317910,2.1248146549299016,1.6465703267433962,1.2024636936371675,1.0821838436708233,10271.057661806801,1.8498581767924448E-003,115.09015065572584,210.42150151957094,251.82079491755186,315.24975309418835,94.151400648220473,71.322666666666663,1.9333333333349856E-002,1.7501037568210376,-0.43385640547006687,7.9577446480039407E-002
20220322023000,418.98086481056805,4.5000724340795228,1.3914648617968224,0,-12.807346861115066,0,35.344292004007947,0,1.2176702393022198,0,83.862231561122385,4.0268435018878188,12.086283059337861,2.0159818844120103,1.4881404641563800,1.2189164917399793,1.0777284664447313,8155.6714573700356,2.3296671646612578E-003,113.47056589145170,207.46038403041047,248.27709356298612,310.81345950917228,94.131266054542081,68.903999999999996,0.12400000000002365,1.9121853076521222,-0.29191627830982725,7.3332742186804065E-002
20220322030000,419.38759242437743,4.7032859521276418,1.1083772536270384,0,-15.455782263619151,0,14.425732711644976,0,1.1665569103133662,0,79.081855405881925,4.0877761384169267,11.338676379696942,1.9486304718883483,1.4676872003958692,1.1522709451325417,0.96171940001573319,4802.0509056974006,3.9566427705831735E-003,108.35523848675645,198.10793408462845,237.08459962693090,296.80178525087740,94.121646667792490,72.719333333333338,-1.1333333333311657E-002,1.6611638449391404,-0.37447918859896845,9.4150088153241454E-002
20220322033000,419.59629881033464,4.8745785770104462,1.1669146141495366,0,-7.1396453671134985,0,19.166548711126023,1,1.3000408954000102,0,86.694409257642334,4.5766055742902036,11.577151206630433,2.0705124857271446,1.6337803426510273,1.1676383065141061,0.98677120514760919,11230.924060290496,1.6917574990270704E-003,109.44134119032114,200.09367622143552,239.46102579907054,299.77678882140810,94.139224885354153,75.252333333333340,1.2333333333344854E-002,1.5095185701955733,-0.36073576213982506,6.7214484471894043E-002
20220322040000,419.68816393744623,4.9893825826563605,1.1791738528177151,0,-0.43723122605086195,0,14.213100426354584,0,1.1117227271784076,0,91.264926441499625,4.7164072393355978,11.317201394604830,1.9808586892534328,1.5031228447232612,1.1842806902085545,0.99195875550686563,186323.39764425618,1.0197323707179464E-004,108.66409649925988,198.67262503669551,237.76039047247360,297.64779519723788,94.153392833333328,76.818333333333328,5.1333333333332121E-002,1.4180091615743253,-0.31916739230683788,6.5202818215532532E-002
20220322043000,419.84248627151925,4.9915340194107616,1.1309931805833140,0,-14.360646261282703,0,17.331979755768149,0,1.5367307636564675,0,93.530501889961670,4.0820922338826211,11.387041073769614,1.9931430563937949,1.4600219318176875,1.1633440658824727,0.97143537883109188,5327.0920143838939,3.5666738905011106E-003,108.39755577745916,198.18530358844066,237.17719116254710,296.91769886615759,94.130652647135420,77.349999999999994,-4.0999999999996817E-002,1.3762250949887176,-0.40565986294211598,8.4181371927424600E-002
20220322050000,419.60811545248924,5.0245413760236239,1.2173838945189686,0,-21.907541434844909,0,18.842869377182474,0,1.6235532925792646,0,93.462181947722044,4.3592758881695035,10.690904418867689,1.9799051845411859,1.5061538483098382,1.1447270324428398,1.0073952368431121,3893.9283367942926,4.8793912873193500E-003,113.04549590259785,206.68322052166596,247.34702733334871,309.64912695533997,94.118146495659715,79.501666666666665,-0.32933333333335213,1.2196313801632779,-0.68281409030487339,8.9495292293332765E-002
20220322053000,419.19208825850382,4.8395973112017314,1.3716947966030300,0,-6.7768018836365398,0,28.963762429955590,0,1.7039002382739348,0,96.435527555506496,4.7139986048194551,12.490604829034639,2.2258614107929815,1.5960078584726323,1.2341684667241424,1.0696364803905045,15065.121955911871,1.2611912505988046E-003,111.67200356966477,204.17203848415232,244.34178379928645,305.88691866586481,94.093683233723965,75.996333333333340,-0.22866666666664059,1.4387029141697469,-0.59701586320665001,9.4547060895562085E-002
20220322060000,419.00630346198750,4.5847016405595102,1.0620541365433598,0,-7.8785545238587558,0,19.460452282351618,0,1.1169957580004455,0,93.275917552486618,4.8245077727786976,11.803579043745311,1.8644105917702873,1.6421339890238054,1.1862084328442468,0.94162877375022880,8838.9332913668168,2.1495806534208967E-003,104.09500032125098,190.31885998481064,227.76306728673225,285.13233289421544,94.073987001522823,70.839666666666673,-9.3333333333589508E-003,1.7758778203114804,-0.40837463338209545,8.6116659597967701E-002
20220322063000,419.09861090513721,4.4120705885238340,1.3603211298080033,0,-8.9071465549160127,0,30.552482115274795,0,1.2142041823085292,0,94.252807383739508,4.9636067831700146,12.515311988812744,2.1235378377390925,1.6207417844326959,1.2428894855543384,1.0660526352463560,11342.030632854256,1.6751850365280309E-003,110.74695830008132,202.48076070329694,242.31775625397506,303.35307635898084,94.042939929822495,67.566666666666663,0.10899999999998045,1.9922517653317431,-0.32036873650912412,7.9015812967189902E-002
20220322070000,419.28554730300590,4.2951862142527784,1.2457993989499454,0,-1.3349924648925304,2,22.830914815396390,0,1.2194756309090002,0,92.990273386023318,5.2566737440636970,13.392821389283405,2.2183926209013407,1.7372737504015374,1.3610787718796344,1.0207165930037845,66404.842292641508,2.8612371242850524E-004,99.465491093797624,181.85464061078744,217.63355848781885,272.45138988921707,94.005541494791657,64.877333333333340,0.29333333333335077,2.1864846012509900,-0.15437297227646241,9.9849146525754676E-002
20220322073000,419.43152866953005,4.2193217807312946,2.1826679747781745,0,5.8640918877742862,1,26.541584397003209,0,1.3564229396955931,0,91.880753031232302,5.3282672049569397,14.616269576034341,2.5214591615234911,1.8793741600499114,1.4743578994830198,1.3515635345891117,-35089.690583871350,-5.4146957935084143E-004,116.79970226491699,213.54710709469322,255.56134650017052,319.93247980562887,93.978979852430555,63.097999999999999,0.42733333333330847,2.3196590938844630,-2.6417688157778230E-002,9.6674269364218121E-002
20220322080000,419.64273287503136,4.2684929388464665,1.8122662420987821,0,-5.3890848964336717,0,28.230681773125493,0,1.3704708040463400,0,96.954991421263330,5.2597619910741740,14.711145705497067,2.5118888952659915,1.8973595664827292,1.3987615857688980,1.2318236124862805,28907.385487523916,6.5727147853617462E-004,113.10941654654256,206.80008784524065,247.48688767133672,309.82421550206948,93.979957388277512,63.294333333333334,0.54466666666667152,2.3269903208704195,8.3199560320338151E-002,8.1716936758563438E-002
20220322083000,420.01092930637191,4.3651652373397622,1.7651481906879785,0,-11.864172229114457,1,31.431346550400949,0,1.7051454883002601,0,98.003221465404664,5.0855491241190451,13.611987082006479,2.3520795686370755,1.8307568746079796,1.4635320691098876,1.2157783865748262,12622.128528973559,1.5052928637500646E-003,107.94850697652817,197.36429916356929,236.19465855343202,295.68768463110632,93.956333250651056,64.925666666666672,0.49900000000002365,2.2162371686156734,3.6350349426299999E-002,8.4717064641927201E-002
20220322090000,420.66595671766714,4.4479157724725811,1.2299076904954898,0,1.5419190133872225,1,11.824255729504337,0,0.47721732938260458,1,93.949092915467887,5.2149882590447287,14.343903736633832,2.0852248146134666,1.8050261680096991,1.3912482996552009,1.0146941152322775,-56449.174530312506,-3.3658596707729067E-004,97.274564670521684,177.84892834889556,212.83974398352123,266.45010298455952,93.926707988715293,66.986999999999995,0.32233333333334713,2.0594753515479858,-0.13643033515086245,9.2588087554848736E-002
20220322093000,420.88003249581919,4.5397738170172772,1.8897798529969656,0,-4.2389394946097729,2,18.930806905893618,0,1.7077762080498164,0,95.379130265337366,5.2251280432749487,14.342098829835559,2.4912313604051088,1.7948215379408092,1.4439566090529197,1.2580843124863568,39122.760720048034,4.8565079892901465E-004,112.14486258686688,205.03657557824630,245.37641389506211,307.18215277210248,93.877476412977416,68.435333333333332,0.30200000000002092,1.9662236790956524,-0.12223387654620410,9.6474429040187770E-002
20220322100000,420.58168179907688,4.4816624571631856,1.7098665152286237,0,-9.8134107965762940,1,14.858303657580789,0,1.1924961421094047,0,94.533354554019326,5.4090895616855752,13.580788262887978,2.3101387312827777,1.8320413192619922,1.4123227967743557,1.1968353197499517,14546.039799560056,1.3061974435526194E-003,109.68196997447512,200.53362238348350,239.98752899122434,300.43590834084301,93.849700872178815,67.602999999999994,0.28899999999998727,2.0161709033908801,-0.15448095109724136,0.10198037641967547
20220322103000,420.26770234296549,4.4732859055788072,1.7420896854660506,0,-6.9642977960789612,0,-2.9704107495751950,2,0.86186594181874343,0,93.893618566823591,5.2583206013883901,13.442129461425301,2.3307070147523010,1.6988382134814017,1.3356236773103671,1.2081848416563261,21083.740140531507,9.0116838252404222E-004,115.56180546200567,211.28383693203557,252.85279016273455,316.54168868014636,93.838721055594732,67.344999999999999,0.31433333333336577,2.0359614320588806,-9.7760446215488628E-002,0.11963979115402644
20220322110000,420.46260289815064,4.9232367156267989,1.8430049810554168,0,8.9606089485736113,0,4.4045332328154911,2,0.95213692565360064,0,93.765837337821125,5.1725163853761211,13.325102919614418,2.4204489252267849,1.7455518694028642,1.3920806731976669,1.2431469197760325,-17852.953149612888,-1.0642496981185425E-003,114.37769579061322,209.11890680032019,250.26192172594210,313.29822884091521,93.845596494621475,73.183999999999997,0.49066666666664105,1.6933976397051913,8.0638710302707750E-002,8.0538915324835370E-002
20220322113000,421.11626020197639,5.2290557177503567,1.8859515040363497,0,-10.682251977710116,1,7.1078756665575824,2,1.7496499624885578,1,96.515580384271047,4.9181989455347983,13.746333351515686,2.3168925825850724,1.7933253472209376,1.4232473164072155,1.2570976365619939,15487.271826302745,1.2268138774274902E-003,113.37722128260704,207.28972031470636,248.07285268340951,310.55777416404680,93.854694835233431,78.877333333333340,0.28966666666667606,1.3145959094261155,-8.6931329060121243E-002,0.11753926975954139
20220322120000,421.31278086482342,5.1177248754351501,1.6855644805513519,0,-2.7998345571940586,1,3.6392187456948917,0,1.0754685428249016,0,94.968939437270578,5.0803286110779808,14.611101907902231,2.3108466144842121,1.6914926343309409,1.3469811282682251,1.1877925790745474,49838.714078751596,3.8122973979580509E-004,113.22913171938343,207.01896536238985,247.74882815726639,310.15213390746464,93.841505200592749,79.021666666666661,-3.3999999999991815E-002,1.2753023967143811,-0.41470914245462609,0.11135967210664441
20220322123000,420.99712284484508,4.9880095161903260,1.8484204947932621,0,2.7484002548110880,0,9.2899874311541737,0,1.6252273313041434,0,95.621837813032897,5.5905012972222696,13.763268424258850,2.3777576913351783,1.9502472035012943,1.4819775959204486,1.2437476429677348,-58276.648939302046,-3.2603110072079505E-004,108.83470535717787,198.98455244187400,238.13368790910133,298.11511929081053,93.814325085069441,77.620333333333335,-0.14499999999998181,1.3495563449423502,-0.55560650804306988,8.5027222138177899E-002
20220322130000,420.66398545915177,4.8420461504410950,1.8926277614767113,0,25.886021647805652,0,10.920312701130930,0,1.0428778294954808,0,97.329660813380258,5.5267729379698958,14.706597002225015,2.3966852734612494,1.9070629928121579,1.4552002743062404,1.2584584883292904,-6409.3312375335117,-2.9644278468141283E-003,111.47764897451587,203.81669629800129,243.91652995812436,305.35455131918638,93.812519139105888,75.469999999999999,-0.16733333333331757,1.4768262397475678,-0.61255659654403871,8.4519781841723124E-002
20220322133000,420.30374015037887,4.7471821141313297,1.9242219703522427,0,46.444475550618627,0,10.997185835959009,1,0.87350389622301572,0,97.247010629882098,5.3556910429868809,14.134491224218213,2.3686138938195760,2.0088111370592681,1.4929545213405533,1.2692557413886918,-3664.7188069746890,-5.1845724053477772E-003,109.96562486297118,201.05223398674093,240.60817462507183,301.21288302592995,93.804017871310762,73.288666666666671,-3.7333333333322116E-002,1.6234262312540653,-0.51431972842743789,9.6956580187394226E-002
20220322140000,419.89947569779235,4.6679061298419429,2.2398621058949706,0,77.384259833416635,0,15.823729494981523,0,0.77706768098162571,0,98.397073422179602,5.0024794746237236,14.653834125007762,2.4962085324079175,1.9368919448089577,1.4960892658099498,1.3700192538793281,-2765.6031646025854,-6.8701107386569980E-003,116.69983198062275,213.36451236300985,255.34282724169071,319.65891962445068,93.785744696614586,71.013666666666666,0.16233333333332212,1.7874206430337081,-0.33262373436821235,0.13483213700089405
20220322143000,419.61416696183380,4.6199386406444765,1.8398758026138697,0,63.128429792001512,0,28.577470920634273,0,1.3067700401241242,0,94.872916792356421,5.2990375934063190,13.263776560468314,2.4404306334565669,1.7941351336237581,1.4390111600156235,1.2422551540235298,-2527.1480104090260,-7.5183566303759141E-003,111.31974837473393,203.52800364178654,243.57103858176853,304.92203711348702,93.774496708984373,69.140333333333331,0.38700000000000045,1.9341813459928869,-0.13905830213758463,0.10671815873214248
20220322150000,419.32830325042301,4.5232792891907128,1.8941183659973460,0,86.754849223202996,0,20.755771473645403,0,0.79231011888460035,0,93.411053841710810,5.7097131091916271,15.255109023601568,2.4767026812537067,1.9475724770079339,1.5295741700694474,1.2610907993240981,-1923.1662503675093,-9.8795410934281822E-003,107.29896991525429,196.17673825634009,234.77345145476653,293.90850199014653,93.730375256727427,66.852333333333334,0.55333333333334167,2.1027451116608287,-1.0581118265747591E-002,0.14258612172431484
20220322153000,419.22404237804926,4.5181934685810523,1.5243580266437153,0,55.651012907473103,0,17.602847556149619,0,0.66007850376464472,0,98.744835265174700,4.8461906499848713,15.096771843401635,2.3115306812955057,1.9003622405855765,1.3901190432248791,1.1314619987755745,-2166.3620934093069,-8.7704636532385024E-003,106.20018748973642,194.16781354381271,232.36928166040209,290.89876669676840,93.794329782986111,65.602999999999994,0.80833333333333712,2.2225664463712982,0.28610136498349448,0.13813272643529212
20220322160000,419.19461605808908,4.5456887506065495,1.6182899403130573,0,46.604370719923295,0,19.916601588098402,0,0.63297777823231416,0,104.09875813462335,4.7914336055982005,12.647750978047783,2.1884513699945525,1.5880455099620592,1.2703025102554868,1.1658395554140792,-2831.5207389097382,-6.7101751150570235E-003,116.90691594577189,213.74312789734569,255.79593333653395,320.22615468766924,93.867712050781265,64.970666666666659,1.0376666666666665,2.3011607420454623,0.55074224175348263,0.14663358951858013
20220322163000,419.20224221179359,4.5571767501693223,1.1486090158863873,0,34.311875314965604,0,20.058158638948356,0,0.84447279014072241,0,106.60986819491146,4.0930874099664640,12.362409187960402,1.9930974157043839,1.4943822748131910,1.1648099183426019,0.98227450929521987,-2301.0421549912517,-8.2571281707232505E-003,109.25395086361961,199.75106693914574,239.05100999180135,299.26349768495271,93.909660256527133,64.385333333333335,1.2046666666666397,2.3679065408389564,0.75196230146974585,8.6363773121364507E-002
20220322170000,419.34051755458307,4.6946660724377125,1.3637580006380190,0,36.467766590568687,1,-16.629029414944458,2,-2.4490112701065804E-002,2,110.46835868454839,4.7705893693735257,13.798696760643328,2.1705503862968416,1.7060133321495157,1.2835911178956048,1.0701747952553347,-2800.1190653368067,-6.7854257467850291E-003,108.26231558576390,197.93804138537485,236.88128145712517,296.54725502889232,93.922317616655661,66.594999999999999,1.1506666666666661,2.2123805892942854,0.65573878689724552,0.20893772806669486
20220322173000,419.57040119640249,5.2500040120458378,1.1592247552130115,0,10.192910901711244,2,49.567298935220073,1,1.3595843284886875,1,102.23927427591502,4.0078930393433190,11.123359390193809,1.9154715091307817,1.6349296493202348,1.2074379522043437,0.98511786613420982,-7814.6810390611881,-2.4313212407556630E-003,106.40293270060330,194.53849645154588,232.81289442722306,291.45411723982232,93.919208639322932,79.623999999999995,0.22433333333333394,1.2621340403718273,-0.24570880635565118,0.31725696893032218
20220322180000,419.69767446253024,5.4630088523460554,1.1506299764768182,0,43.267392606555518,0,9.9322347255955172,0,0.59623203098466815,0,94.148982992585204,4.6258414699798767,12.397331225000791,2.0988047266859509,1.6023787319676939,1.1432567356322709,0.98079753251606527,-1816.8048561888102,-1.0457920087167269E-002,110.76521031936026,202.51413121572187,242.35769223439991,303.40307146749689,93.911110726996526,85.376666666666665,-0.18966666666665333,0.87896695021356208,-0.61508274247910322,9.5601271537041926E-002
20220322183000,419.69983691277133,5.3945620597504229,1.1851008985963016,0,42.336644509115757,0,10.040790234282470,0,0.47802736194952794,0,94.352814110260923,4.3048844892139888,11.667524525854795,2.0516350190067265,1.4626043575149541,1.1238070951730565,0.99530755479642874,-1940.2331491827358,-9.7926375538956081E-003,113.62328064350763,207.73959530304072,248.61123814477051,311.23176887452780,93.902852592345326,84.650000000000006,-0.24666666666666970,0.91882515348871152,-0.59571403556827818,8.5068553995503407E-002
20220322190000,419.78407740776493,5.4619638418105092,0.74085931120392801,0,23.576490515631477,0,2.3419710992846303,2,0.35490918193600690,0,91.970567001576043,3.9761581385462206,10.710707272026660,1.7479554169080593,1.4768596524397821,1.0159766581699536,0.78679776886248276,-1720.7236414512145,-1.1041866074424296E-002,102.05596918372477,186.59086074978595,223.30160434669790,279.54711070974417,93.872217213680585,86.950000000000003,-0.44866666666666788,0.76973866304632910,-0.53476004096501129,0.18501159902589870
20220322193000,419.91381430998877,5.5889257608248482,1.2217259750635441,0,51.320166885285232,1,23.623909452202895,0,1.3643201193446000,0,81.058732655169834,3.9795613468966149,11.266616213035393,2.0097408665082832,1.4299906789859482,1.0511664851742875,1.0106501163525889,-1674.4225765694332,-1.1347195305337624E-002,121.33842672387235,221.84534295758525,265.49221542904019,332.36474926479696,93.793901677734368,89.493333333333339,-0.54033333333330802,0.61559302719895759,0.36876823679608606,0.21437667307786551
20220322200000,420.02170526235994,5.5404917920951258,0.87223755156014848,0,5.3307351755175123,0,6.5818135612298514,1,0.37015349203487674,0,68.196523282330404,4.5216627211833433,11.866738311199889,1.8607112601350313,1.5079211681627718,1.0487454148609634,0.85413259147259768,-9724.3200559853485,-1.9538641149830769E-003,106.25247979627049,194.26342055793276,232.48369883793168,291.04200342579924,93.710443765842030,89.416666666666671,-0.66000000000002501,0.61469090678325988,0.44894350094267566,9.1040927064873906E-002
20220322203000,420.08937203421806,5.5523902427059477,0.78293037940606325,0,-64.759369089444348,0,1.8372988179603753,2,8.4665829790730118E-002,2,74.855680187534233,3.9489615902713093,9.9769238739701951,1.6759374200114479,1.4494541594382935,0.94769942747660063,0.80923360940594080,680.70840395368418,2.7912098469248178E-002,110.35132054383124,201.75740870268132,241.45208865591695,302.26936325006619,93.701615607375544,89.739999999999995,-0.68133333333332757,0.59498338243585291,0.26330859101653914,0.25916521092049555
20220322210000,420.06811327659335,5.4456974318178251,1.1613077956466455,0,55.041807140053635,1,17.298913817040130,0,0.59803811371210147,1,75.459215826600598,3.9333253695203432,11.473474924099897,1.8076120891463479,1.6518625632994295,1.1148141178965503,0.98550114472492345,-1446.1867112693983,-1.3137999299774125E-002,113.45369333155961,207.42953560970071,248.24017588219317,310.76724295363084,93.674978385402198,88.653333333333336,-0.78399999999999181,0.65308064924341069,1.7704405687001668,0.90564934621913051
20220322213000,419.74090883855706,5.4146054785149431,0.73215388837758444,0,-8.1361091259981713,1,4.2395343746808880,1,0.32101607843281438,0,68.965425342962973,3.9596950008958745,11.621931427780227,1.6531873223340212,1.3492251981103627,0.98067066156041172,0.78241207955826808,4895.3767381468415,3.8812130335024028E-003,104.51648391791547,191.08946642481186,228.68528637978270,286.28684176421598,93.660887999345377,88.776666666666671,-0.88333333333332575,0.64130495568546220,2.6939084261982202,0.21315829418493010
20220322220000,419.49494690607941,5.4310153954692284,0.87314924341332789,0,-104.76917885924104,1,9.0064958474061516,0,0.81350576394732643,0,64.971878438717269,4.6004605175828805,11.238318855722707,1.9166908590885987,1.4689109878111530,0.99195234806355281,0.85450836488426529,495.04742953452086,3.8380160902694041E-002,111.13102160103232,203.18295090814269,243.15809858729469,304.40508524164812,93.610923327907997,89.650000000000006,-0.98300000000000409,0.58710272750392678,4.0256504177515922,0.83565333116059826
20220322223000,419.42764037265852,5.3737031182137578,0.79711348621112155,0,15.164348356579918,1,6.2626643902339616,1,0.64377825938043354,0,59.369414224583849,4.6058629060897873,12.153542185406971,2.0047629418591288,1.2521323561238045,0.93877453972845326,0.81636643867119918,-2981.5827049355348,-6.3724544580126951E-003,111.97316950479347,204.72266586551615,245.00074414258344,306.71185882059370,93.577328168624632,89.656666666666666,-1.1336666666666702,0.58028149613808466,5.4928301968379856,0.27473601357388028